ギャラッド彗星

436P/Garradd (2021)

English version
Home page
Updated on March 7, 2023

---------------------------------------------------------------------

・ プロフィール

符号 436P/2021 U2
検出日 2021年10月24日、8月15日
検出光度 19.4等、20.2等
検出者 T. Prystavski (Ukraine), J. Drummond (Gisborne, New Zealand)

・ 写真集

・ 軌道要素

Epoch 2023 Feb. 25.0 TT = JDT 2460000.5
T 2021 Dec. 8.53330 TT                                  Rudenko
q   1.9583892            (2000.0)            P               Q
n   0.06823141     Peri.  282.63178     +0.92536680     -0.15707851
a   5.9312534      Node    87.18640     +0.29322763     +0.87339160
e   0.6698187      Incl.   20.20701     -0.24023706     +0.46099181
P  14.4
>From 116 observations 2007 Aug. 12-2022 Oct. 22, mean residual 0".7.

・ 光度変化

        m1 = 15.0 + 5 logΔ + 10.0 log r

---------------------------------------------------------------------

軌道要素はM.P.E.C. 2022-X67に掲載されたものです。
光度グラフはComet for Windowsで作成したものです。

---------------------------------------------------------------------

Copyright(C) Seiichi Yoshida (comet@aerith.net). All rights reserved.